Penticton, British Columbia

8:37 AM PST on February 10, 2016 (GMT -0800)
Penticton

Weather History for CYYF - October, 2012

Change the Weather History Date:

Monday, October 22, 2012

  Actual Average Record
Temperature  
Mean Temperature 38 °F -  
Max Temperature 46 °F 48 °F 69 °F (2003)
Min Temperature 30 °F 33 °F 28 °F (2006)
Degree Days  
Heating Degree Days 27    
Moisture  
Dew Point 30 °F    
Average Humidity 66    
Maximum Humidity 87    
Minimum Humidity 40    
Precipitation  
Precipitation 0.03 in 0.03 in - ()
Sea Level Pressure  
Sea Level Pressure 29.78 in    
Wind  
Wind Speed 7 mph ()    
Max Wind Speed 16 mph    
Max Gust Speed 22 mph    
Visibility 15.0 miles    
Events Rain    
Averages and records for this station are not official NWS values.
T = Trace of Precipitation, MM = Missing Value Source: Averaged Metar Reports

Daily Weather History Graph

Daily Weather History Graph

Search for Another Location

Airport or City:

Trip Planner

Search our weather history database for the weather conditions in past years. The results will help you decide how hot, cold, wet, or windy it might be!

Date:

Astronomy

Oct. 22, 2012 Rise Set
Actual Time 7:31 AM PDT 5:53 PM PDT
Civil Twilight 6:58 AM PDT 6:25 PM PDT
Nautical Twilight 6:21 AM PDT 7:03 PM PDT
Astronomical Twilight 5:44 AM PDT 7:39 PM PDT
Moon 2:37 PM PDT (10/22) No Moon Set
Length of Visible Light 11h 26m
Length of Day
10h 21m
First Quarter, 57% of the Moon is Illuminated
Oct 22
First Quarter
Oct 29
Full
Nov 6
Last Quarter
Nov 13
New
Nov 20
First Quarter

Hourly Weather History & Observations

Time (PDT) Temp. Windchill Dew Point Humidity Pressure Visibility Wind Dir Wind Speed Gust Speed Precip Events Conditions
1:00 AM 37.4 °F 32.1 °F 30.2 °F 75% 29.94 in 15.0 mi North 6.9 mph - N/A   Overcast
2:00 AM 37.4 °F 33.8 °F 30.2 °F 75% 29.93 in 15.0 mi NNE 4.6 mph - N/A   Overcast
3:00 AM 37.4 °F 32.8 °F 30.2 °F 75% 29.92 in 15.0 mi North 5.8 mph - N/A   Overcast
4:00 AM 37.4 °F 33.8 °F 30.2 °F 75% 29.91 in 15.0 mi NNW 4.6 mph - N/A   Overcast
5:00 AM 36 °F - 30 °F 70% 29.91 in 15 mi North 3.5 mph - -   Overcast
5:00 AM 35.6 °F 31.7 °F 30.2 °F 81% 29.91 in 15.0 mi North 4.6 mph - N/A   Overcast
6:00 AM 35.6 °F 30.7 °F 30.2 °F 81% 29.89 in 15.0 mi NNW 5.8 mph - N/A   Overcast
7:00 AM 33.8 °F 27.7 °F 30.2 °F 87% 29.89 in 15.0 mi North 6.9 mph - N/A   Mostly Cloudy
8:00 AM 35.6 °F 30.7 °F 30.2 °F 81% 29.90 in 15.0 mi North 5.8 mph - N/A   Scattered Clouds
9:00 AM 41.0 °F 35.8 °F 32.0 °F 70% 29.88 in 15.0 mi North 8.1 mph - N/A   Scattered Clouds
10:00 AM 41.0 °F 35.2 °F 32.0 °F 70% 29.85 in 15.0 mi NNE 9.2 mph - N/A   Mostly Cloudy
11:00 AM 43 °F - 30 °F 47% 29.83 in 15 mi North 12.7 mph - -   Partly Cloudy
11:00 AM 42.8 °F 36.6 °F 30.2 °F 61% 29.83 in 15.0 mi North 11.5 mph - N/A   Mostly Cloudy
12:00 PM 44.6 °F 38.1 °F 30.2 °F 57% 29.80 in 15.0 mi North 13.8 mph 20.7 mph N/A   Mostly Cloudy
1:00 PM 46.4 °F 40.7 °F 30.2 °F 53% 29.75 in 15.0 mi NNW 12.7 mph 20.7 mph N/A   Overcast
2:00 PM 46.4 °F 40.4 °F 28.4 °F 50% 29.72 in 15.0 mi NNW 13.8 mph - N/A   Mostly Cloudy
4:00 PM 46.4 °F 40.7 °F 28.4 °F 50% 29.67 in 15.0 mi NNW 12.7 mph - N/A   Overcast
5:00 PM 45 °F - 29 °F 40% 29.66 in 15 mi NNW 8.1 mph - -   Overcast
5:00 PM 44.6 °F 40.7 °F 28.4 °F 53% 29.65 in 15.0 mi NNW 6.9 mph - N/A   Overcast
6:00 PM 44.6 °F 40.7 °F 28.4 °F 53% 29.65 in 15.0 mi NNE 6.9 mph - N/A   Overcast
8:00 PM 44.6 °F 42.2 °F 28.4 °F 53% 29.63 in 15.0 mi North 4.6 mph - N/A   Overcast
8:41 PM 44.6 °F 39.2 °F 30.2 °F 57% 29.63 in 15.0 mi West 10.4 mph 21.9 mph N/A Rain Light Rain Showers
9:00 PM 42.8 °F 35.1 °F 32.0 °F 66% 29.63 in 15.0 mi WNW 16.1 mph - N/A Rain Light Rain Showers
10:00 PM 41.0 °F 34.3 °F 33.8 °F 76% 29.65 in 15.0 mi NW 11.5 mph 21.9 mph N/A Rain Light Rain Showers
11:00 PM 40 °F - 34 °F 73% 29.65 in 15 mi NW 8.1 mph - - Rain Light Rain Showers
11:00 PM 39.2 °F 33.6 °F 33.8 °F 81% 29.65 in 15.0 mi NW 8.1 mph - N/A Rain Light Rain Showers